Location: Bailleul
(50.3375°N, 2.8513°E)
Time: 10:14:40
(UTC+00:00)

SL-16 R/B - Pass Details

Date: 16 June 2021
Orbit: 842 x 847 km, 71.0° (Epoch: 28 July)

Event Time Altitude Azimuth Distance (km) Brightness Sun altitude
Exits shadow 23:20:13 19° 138° (SE) 1,920 3.6 -16.0°
Maximum altitude 23:22:39 25° 103° (ESE) 1,643 3.5 -16.0°
Drops below altitude 10° 23:27:10 10° 50° (NE) 2,474 5.1 -16.1°
Sets 23:30:00 0° 38° (NE) 3,413 6.1 -16.2°
